Powrót do katalogu

FENGYUN 1C DEB

LostSSO
NORAD 37475·DEBRIS·🇨🇳 China

Wystrzelony May 10, 1999 z Taiyuan Satellite Launch Center

Loading…

Następne Przeloty (najbliższe 24 godziny)

TLE

NieaktualneSource: Space-Track

Epoka: Jan 30, 2023, 08:03 UTC

1 37475U 99025EJV 23030.33577359  .00004946  00000-0  18994-2 0  9997
2 37475  98.9523 169.0322 0108420 312.3565  46.8473 14.27733820497365

Śledź FENGYUN 1C DEB w czasie rzeczywistym z AllMySat

Download on the App Store